DLH521 MMMX-EDDM

Flight info

Callsign DLH521
Flight time N/A
Altitude 37000
Route IKLAN2A IKLAN UT141 TAM UM575 CLONN M575 TBD DCT HRV Q56 SJI/N0482F390 Q56 CATLN Q22 RBV Q430 ACK DCT WHALE N339B JOOPY/M083F400 DCT 49N050W 51N040W 53N030W 54N020W DCT DOGAL DCT BEXET/N0480F410 DCT OSGAR DCT MORAG DCT NUCHU L607 KONAN DCT KOK DCT MATUG DCT MOVUM T109 HAREM/N0458F350 T104 ELMOX/N0421F270 T104 ROKIL ROKIL1A
Aircraft A359/H-SADE2E3GHIJ1J2J3J4J5M1P2RWXYZ/LB1D1

Departure

Time 2026-05-04 03:02
Airport Mexico City Benito Juárez International Airport (MMMX)

Arrival

Time N/A
Airport Munich Airport (EDDM)
Time Latitude Longitude Altitude Speed Heading
2026-05-04 02:42 19.43547 -99.08047 7309 ft 0 kts 328°
2026-05-04 02:51 19.43543 -99.08044 7309 ft 4 kts 328°
2026-05-04 02:51 19.43519 -99.08029 7314 ft 4 kts 332°
2026-05-04 02:51 19.43498 -99.08017 7311 ft 4 kts 323°
2026-05-04 02:52 19.43485 -99.07998 7309 ft 4 kts 262°
2026-05-04 02:52 19.43494 -99.07973 7310 ft 4 kts 238°
2026-05-04 02:52 19.43501 -99.07962 7309 ft 1 kts 239°
2026-05-04 02:54 19.43489 -99.07984 7309 ft 8 kts 242°
2026-05-04 02:54 19.43488 -99.07987 7309 ft 0 kts 242°
2026-05-04 02:55 19.43416 -99.08117 7309 ft 22 kts 237°
2026-05-04 02:55 19.43314 -99.08289 7309 ft 33 kts 238°
2026-05-04 02:55 19.43176 -99.08520 7309 ft 37 kts 238°
2026-05-04 02:56 19.43070 -99.08715 7309 ft 28 kts 240°
2026-05-04 02:56 19.42991 -99.08854 7309 ft 17 kts 243°
2026-05-04 02:56 19.42940 -99.08958 7309 ft 15 kts 243°
2026-05-04 02:56 19.42897 -99.09022 7309 ft 0 kts 226°
2026-05-04 02:58 19.42896 -99.09022 7309 ft 2 kts 221°
2026-05-04 02:59 19.42842 -99.09056 7309 ft 16 kts 208°
2026-05-04 02:59 19.42803 -99.09073 7309 ft 7 kts 192°
2026-05-04 02:59 19.42783 -99.09010 7309 ft 16 kts 71°
2026-05-04 02:59 19.42811 -99.08956 7309 ft 0 kts 59°
2026-05-04 03:01 19.42853 -99.08881 7309 ft 39 kts 59°
2026-05-04 03:01 19.43112 -99.08425 7307 ft 104 kts 59°
2026-05-04 03:01 19.43586 -99.07578 7311 ft 161 kts 59°
2026-05-04 03:02 19.44230 -99.06406 7468 ft 196 kts 60°
2026-05-04 03:02 19.44899 -99.05151 8276 ft 196 kts 60°
2026-05-04 03:02 19.45564 -99.03891 9199 ft 196 kts 59°
2026-05-04 03:02 19.46236 -99.02621 9620 ft 202 kts 59°
2026-05-04 03:03 19.47006 -99.01306 9770 ft 219 kts 58°
2026-05-04 03:03 19.47850 -98.99882 9921 ft 237 kts 59°
2026-05-04 03:03 19.48744 -98.98341 10149 ft 253 kts 59°
2026-05-04 03:03 19.49692 -98.96688 10306 ft 272 kts 59°
2026-05-04 03:04 19.50684 -98.94938 10527 ft 288 kts 60°
2026-05-04 03:04 19.51737 -98.93061 10775 ft 304 kts 60°
2026-05-04 03:04 19.52851 -98.91091 11004 ft 319 kts 58°
2026-05-04 03:04 19.54239 -98.89183 11213 ft 334 kts 49°
2026-05-04 03:05 19.55837 -98.87326 11446 ft 348 kts 47°
2026-05-04 03:05 19.57518 -98.85408 11654 ft 361 kts 47°
2026-05-04 03:05 19.59248 -98.83427 11943 ft 369 kts 46°
2026-05-04 03:05 19.60999 -98.81416 12394 ft 373 kts 46°
2026-05-04 03:06 19.62760 -98.79388 12895 ft 375 kts 46°
2026-05-04 03:06 19.64532 -98.77344 13396 ft 377 kts 46°
2026-05-04 03:06 19.66309 -98.75292 13923 ft 379 kts 46°
2026-05-04 03:06 19.68098 -98.73229 14380 ft 381 kts 46°
2026-05-04 03:07 19.70055 -98.71333 14885 ft 382 kts 33°
2026-05-04 03:07 19.72438 -98.70105 15272 ft 382 kts 14°
2026-05-04 03:07 19.75063 -98.69665 15696 ft 383 kts
2026-05-04 03:07 19.77729 -98.69485 16121 ft 386 kts
2026-05-04 03:08 19.80422 -98.69326 16552 ft 389 kts
2026-05-04 03:08 19.83128 -98.69159 16976 ft 391 kts
2026-05-04 03:08 19.85856 -98.68985 17410 ft 394 kts
2026-05-04 03:08 19.88601 -98.68805 17830 ft 397 kts
2026-05-04 03:09 19.91366 -98.68622 18252 ft 400 kts
2026-05-04 03:09 19.94152 -98.68552 18647 ft 401 kts 355°
2026-05-04 03:09 19.96891 -98.69039 19038 ft 399 kts 342°
2026-05-04 03:09 19.99428 -98.70217 19432 ft 399 kts 328°
2026-05-04 03:10 20.01736 -98.71872 19820 ft 401 kts 323°
2026-05-04 03:10 20.03992 -98.73627 20171 ft 404 kts 323°
2026-05-04 03:10 20.06263 -98.75400 20559 ft 406 kts 323°
2026-05-04 03:10 20.08545 -98.77177 20939 ft 407 kts 323°
2026-05-04 03:11 20.10840 -98.78958 21329 ft 409 kts 323°
2026-05-04 03:11 20.13146 -98.80745 21715 ft 411 kts 323°
2026-05-04 03:11 20.15464 -98.82542 22102 ft 413 kts 323°
2026-05-04 03:11 20.17783 -98.84360 22480 ft 415 kts 323°
2026-05-04 03:12 20.20122 -98.86180 22863 ft 417 kts 325°
2026-05-04 03:12 20.22618 -98.87764 23194 ft 420 kts 334°
2026-05-04 03:12 20.25368 -98.88818 23570 ft 422 kts 345°
2026-05-04 03:12 20.28250 -98.89250 23871 ft 426 kts 356°
2026-05-04 03:13 20.31222 -98.89274 24165 ft 428 kts 359°
2026-05-04 03:13 20.34210 -98.89222 24472 ft 430 kts 359°
2026-05-04 03:13 20.37207 -98.89167 24797 ft 432 kts 359°
2026-05-04 03:13 20.40212 -98.88953 25140 ft 435 kts
2026-05-04 03:14 20.43176 -98.88230 25486 ft 439 kts 17°
2026-05-04 03:14 20.45990 -98.86923 25855 ft 444 kts 27°
2026-05-04 03:14 20.48610 -98.85159 26229 ft 447 kts 32°
2026-05-04 03:14 20.51171 -98.83253 26577 ft 450 kts 33°
2026-05-04 03:15 20.53710 -98.81284 26958 ft 453 kts 34°
2026-05-04 03:15 20.56253 -98.79287 27316 ft 455 kts 34°
2026-05-04 03:15 20.58803 -98.77283 27696 ft 457 kts 33°
2026-05-04 03:15 20.61381 -98.75269 28040 ft 459 kts 33°
2026-05-04 03:16 20.63971 -98.73257 28399 ft 462 kts 33°